Location: Campestrin
(46.4667°N, 11.7167°E)
Time: 10:36:59
(UTC+00:00)

SL-8 R/B - Pass Details

Date: 18 April 2021
Orbit: 656 x 667 km, 48.4° (Epoch: 06 May)

Event Time Altitude Azimuth Distance (km) Brightness Sun altitude
Rises 19:39:33 0° 288° (WNW) 3,007 8.6 -15.4°
Reaches altitude 10° 19:41:55 10° 286° (WNW) 2,092 7.4 -15.7°
Maximum altitude 19:46:43 65° 205° (SSW) 731 3.8 -16.4°
Enters shadow 19:48:58 30° 132° (SE) 1,177 4.4 -16.7°
